This is the latest recevied weather packets stored in our database for station/object WZ8H. If no packets are shown the sender has not sent any weather packets the latest 10 day(s).
| Time | Temp. | Humidity | Pressure | Rain* | Wind** | Luminosity | Snow |
|---|---|---|---|---|---|---|---|
| 1777750110 | 8.89° C | 63% | 1016.5 hPa | 0 mm | - | 872 W/m² | - |
| 1777749783 | 8.33° C | 62% | 1016.6 hPa | 0 mm | - | 635 W/m² | - |
| 1777749456 | 8.33° C | 64% | 1016.6 hPa | 0 mm | - | 492 W/m² | - |
| 1777749150 | 8.33° C | 62% | 1016.7 hPa | 0 mm | - | 448 W/m² | - |
| 1777748846 | 8.33° C | 64% | 1016.7 hPa | 0 mm | - | 675 W/m² | - |
| 1777748542 | 8.33° C | 64% | 1016.8 hPa | 0 mm | - | 526 W/m² | - |
| 1777748227 | 8.33° C | 64% | 1016.8 hPa | 0 mm | - | 508 W/m² | - |
| 1777747930 | 8.33° C | 63% | 1016.9 hPa | 0 mm | - | 571 W/m² | - |
| 1777747604 | 8.33° C | 64% | 1016.8 hPa | 0 mm | - | 496 W/m² | - |
| 1777747297 | 8.33° C | 64% | 1016.8 hPa | 0 mm | - | 452 W/m² | - |
| 1777746995 | 8.33° C | 65% | 1016.9 hPa | 0 mm | - | 388 W/m² | - |
| 1777746672 | 8.33° C | 64% | 1016.9 hPa | 0 mm | - | 387 W/m² | - |
| 1777746341 | 8.33° C | 64% | 1016.9 hPa | 0 mm | - | 522 W/m² | - |
| 1777746040 | 8.33° C | 65% | 1017 hPa | 0 mm | - | 578 W/m² | - |
| 1777745713 | 8.33° C | 60% | 1017 hPa | 0 mm | - | 504 W/m² | - |
| 1777745386 | 8.33° C | 63% | 1017 hPa | 0 mm | - | 499 W/m² | - |
| 1777745084 | 8.89° C | 62% | 1017.1 hPa | 0 mm | - | 814 W/m² | - |
| 1777744781 | 8.89° C | 62% | 1017.1 hPa | 0 mm | - | 747 W/m² | - |
| 1777744477 | 8.89° C | 63% | 1017 hPa | 0 mm | - | 907 W/m² | - |
| 1777744152 | 8.33° C | 63% | 1017.1 hPa | 0 mm | - | 729 W/m² | - |
| 1777743831 | 8.33° C | 63% | 1017 hPa | 0 mm | - | 1181 W/m² | - |
| 1777743523 | 8.33° C | 61% | 1017 hPa | 0 mm | - | 343 W/m² | - |
| 1777743193 | 8.89° C | 60% | 1017.1 hPa | 0 mm | - | 1125 W/m² | - |
| 1777742868 | 8.89° C | 62% | 1017.1 hPa | 0 mm | - | 1127 W/m² | - |
| 1777742539 | 8.33° C | 63% | 1017.2 hPa | 0 mm | - | 308 W/m² | - |
* Rain latest hour (hover to see other rain measurements)
** Current wind speed in m/s (hover to see current wind gust speed)